Lexington Weather

Lexington, Massachusetts, USA

43°F
1/23/2020 12:28pm 
  • Lexington Conditions: Mostly cloudy
  • Temperature: 43.3°F / 6.3°CWarmer 4.1°F than last hour.
  • Dew Point: 20.7°FDecreased 0.9°Fsince last hour.
  • Relative Humidity: 40%Decreased 9.0% since last hour.
  • Wind: Calm, 10-min avg: Calm, gust: 1 mph
  • Barometer: 30.30 inFalling 0.02  inHg/hr Falling Slowly
  • Visibility: 10 miles
  • Rain Today: 0.01 in
  •   

Regional Weather Roundup
for Boston / Norton, MA

        
000
ASUS41 KBOX 202210
RWRBOX

REGIONAL WEATHER ROUNDUP
NATIONAL WEATHER SERVICE BOSTON/NORTON MA
500 PM EST MON JAN 20 2020

NOTE:  "FAIR" INDICATES FEW OR NO CLOUDS BELOW 12,000 FEET WITH NO 
SIGNIFICANT WEATHER AND/OR OBSTRUCTIONS TO VISIBILITY.

MAZALL-202300-
EASTERN MASSACHUSETTS
  
CITY           SKY/WX    TMP DP  RH WIND       PRES   REMARKS
BOSTON         FAIR      28  -3  26 NW12G22   30.23R WCI  18          
BEVERLY        FAIR      24  -1  33 NW14G20   30.21R WCI  12          
LAWRENCE       FAIR      23  -4  30 NW9       30.24R WCI  13          
BEDFORD        FAIR      25  -4  28 NW7       30.22R WCI  17          
BLUE HILL      NOT AVBL                                               
NORWOOD        FAIR      29  -4  24 NW6       30.23F WCI  23          
MARSHFIELD     FAIR      27   1  33 VRB5G13   30.22R WCI  21          
PLYMOUTH       FAIR      25   1  35 NW8       30.21R WCI  16          
TAUNTON        FAIR      27  -3  27 NW3       30.22R                  
NEW BEDFORD    FAIR      27  -1  30 VRB7      30.21R WCI  19          
$$

MAZALL-202300-
CAPE COD AND THE ISLANDS
  
CITY           SKY/WX    TMP DP  RH WIND       PRES   REMARKS
FALMOUTH       CLEAR     25   3  39 N6        30.21R WCI  18          
HYANNIS        FAIR      28   9  44 N6        30.19R WCI  22          
CHATHAM        FAIR      26  14  60 VRB3      30.20R                  
PROVINCETOWN   FAIR      27  13  55 NW12G18   30.21R WCI  17          
NANTUCKET      MOCLDY    27  15  61 N12       30.20R WCI  17          
MARTHAS VNYRD  FAIR      26   8  46 NW7       30.21R WCI  18          
$$
 
MAZALL-202300-
CENTRAL AND WESTERN MASSACHUSETTS
  
CITY           SKY/WX    TMP DP  RH WIND       PRES   REMARKS
WORCESTER      FAIR      20  -2  38 W9        30.18R WCI   9          
FITCHBURG      FAIR      22  -3  33 W9        30.23R WCI  12          
ORANGE         FAIR      22  -5  30 N9        30.25R WCI  12          
SPRINGFIELD    CLEAR     22  -3  33 N9        30.26R WCI  12          
WESTFIELD      FAIR      22  -2  35 NW16      30.27R WCI   8          
NORTH ADAMS    FAIR      16  -1  47 W8        30.28R WCI   5          
PITTSFIELD     FAIR      16  -2  45 NW9       30.22R WCI   4          
$$
 
RIZALL-202300-
RHODE ISLAND
  
CITY           SKY/WX    TMP DP  RH WIND       PRES   REMARKS
PROVIDENCE     FAIR      27   0  31 NW7       30.23R WCI  19          
NEWPORT        FAIR      27   1  32 N12G18    30.21R WCI  17          
BLOCK ISLAND   FAIR      27   4  37 N12       30.24R WCI  17          
SMITHFIELD     FAIR      24   2  38 NW8       30.21R WCI  15          
WESTERLY       FAIR      30  -1  26 NW8       30.24R WCI  22          
$$
 
CTZALL-202300-
CONNECTICUT
  
CITY           SKY/WX    TMP DP  RH WIND       PRES   REMARKS
BRADLEY INTL   FAIR      23   0  36 NW12      30.27R WCI  12          
HARTFORD       FAIR      25   1  35 NW9       30.29R WCI  15          
BRIDGEPORT     FAIR      27  -4  26 N15G21    30.30R WCI  15          
DANBURY        FAIR      24  -5  27 N10       30.29R WCI  14          
GROTON         FAIR      26   0  32 NW14      30.25R WCI  14          
NEW HAVEN      FAIR      28  -3  26 N12G17    30.28R WCI  18          
CHESTER        NOT AVBL                                               
MERIDEN        FAIR      25  -1  32 W8        30.28R WCI  16          
WILLIMANTIC    FAIR      25   1  35 NW7       30.26R WCI  17          
OXFORD         FAIR      22  -2  35 NW12G17   30.25R WCI  10          
$$

MEZ002-015-021-024-NHZ003-005-008-011-012-014-VTZ005-008-202300-
NORTHERN NEW ENGLAND
  
CITY           SKY/WX    TMP DP  RH WIND       PRES   REMARKS
PORTLAND ME    FAIR      24  -2  32 NW6       30.19R WCI  17          
BANGOR ME      FAIR      19  -1  41 NW7       30.12S WCI  10          
CONCORD NH     FAIR      20  -3  36 NW17G23   30.22R WCI   5          
MANCHESTER NH  FAIR      22  -5  30 VRB5      30.22R WCI  16          
NASHUA NH      FAIR      23   2  40 NW7       30.24R WCI  15          
PORTSMOUTH NH  CLEAR     22  -7  27 W13       30.20R WCI  10          
JAFFREY NH     FAIR      18  -5  36 CALM      30.19R                  
KEENE NH       FAIR      20  -2  38 NW5       30.25R WCI  13          
BURLINGTON VT  FAIR      15   1  53 S7        30.29S WCI   5          
MT. WASHINGTON PTCLDY    -8 -20  54 NW61        N/A  WCI -44          
$$

NYZ052-076-202300-
EASTERN NEW YORK
  
CITY           SKY/WX    TMP DP  RH WIND       PRES   REMARKS
ALBANY         FAIR      20  -1  40 W14       30.34R WCI   7          
NEW YORK CITY  FAIR      30   0  27 NW13      30.30R WCI  20          
$$
 
ANZALL-202300-
MARINE OBSERVATIONS
  
STATION/POSITION TIME  TEMP    WIND        PRES    VSBY  WAVE
                       AIR SEA DIR/SP/G                  HT/PER
                 (UTC) (F)     (DEG/KT/KT) (MB)    (MI)  (FT/S)
BOSTON BUOY      2150   28 43  320/ 19/ 23 1022.2R         4/ 7
BUZZARDS BAY     2100   28     340/ 12/ 16 1023.1R
NANTUCKET SOUND  2140                        N/A           1/ 3
MASS BAY-STELLWA 2104   27 42  340/ 16/ 19 1020.1R  1 7/8  4/ 5
ISLE OF SHOALS   2100   25     290/ 20/ 22 1021.5R
S OF BLOCK IS    2200      45                N/A           4/11
$$

......................KEY.........................
  SKY/WX - SKY CONDITION/PRESENT WEATHER
  TMP    - TEMPERATURE IN FAHRENHEIT
  DWPT   - DEWPOINT IN FAHRENHEIT
  RH     - RELATIVE HUMIDITY IN PERCENT
  WIND   - DIRECTION AND SPEED IN MPH
  PRES   - MEAN SEA LEVEL PRESSURE IN INCHES OF HG
  WCI    - WIND CHILL INDEX
  VSB    - VISIBILITY IN MILES
  HX     - HEAT INDEX
  TC     - TEMPERATURE IN CELSIUS
  VRB    - VARIABLE WIND DIRECTION
  N/A    - NOT AVAILABLE
  
      

Other recent Regional Weather Roundups

Thu Jan 23, 12:10pm

Thu Jan 23, 12:01pm

Thu Jan 23, 11:10am

Thu Jan 23, 11:00am

Thu Jan 23, 10:10am

Thu Jan 23, 10:00am

Thu Jan 23, 9:10am

Thu Jan 23, 9:00am

Thu Jan 23, 8:10am

Thu Jan 23, 8:00am

Thu Jan 23, 7:10am

Thu Jan 23, 7:01am

Thu Jan 23, 6:10am

Thu Jan 23, 6:00am

Thu Jan 23, 5:10am

Thu Jan 23, 5:00am

Thu Jan 23, 4:10am

Thu Jan 23, 4:01am

Thu Jan 23, 3:10am

Thu Jan 23, 3:00am

Thu Jan 23, 2:10am

Thu Jan 23, 2:00am

Thu Jan 23, 1:10am

Thu Jan 23, 1:00am

Thu Jan 23, 12:10am

Thu Jan 23, 12:00am

Wed Jan 22, 11:10pm

Wed Jan 22, 11:01pm

Wed Jan 22, 10:10pm

Wed Jan 22, 10:00pm

Wed Jan 22, 9:10pm

Wed Jan 22, 9:00pm

Wed Jan 22, 8:10pm

Wed Jan 22, 8:01pm

Wed Jan 22, 7:10pm

Wed Jan 22, 7:00pm

Wed Jan 22, 6:10pm

Wed Jan 22, 6:01pm

Wed Jan 22, 5:10pm

Wed Jan 22, 5:00pm

Wed Jan 22, 4:10pm

Wed Jan 22, 4:00pm

Wed Jan 22, 3:10pm

Wed Jan 22, 3:00pm

Wed Jan 22, 2:10pm

Wed Jan 22, 2:00pm

Wed Jan 22, 1:10pm

Wed Jan 22, 1:00pm

Wed Jan 22, 12:10pm

Wed Jan 22, 12:00pm

Wed Jan 22, 11:10am

Wed Jan 22, 11:00am

Wed Jan 22, 10:10am

Wed Jan 22, 10:01am

Wed Jan 22, 9:10am

Wed Jan 22, 9:00am

Wed Jan 22, 8:10am

Wed Jan 22, 8:00am

Wed Jan 22, 7:10am

Wed Jan 22, 7:00am

Wed Jan 22, 6:10am

Wed Jan 22, 6:00am

Wed Jan 22, 5:10am

Wed Jan 22, 5:00am

Wed Jan 22, 4:10am

Wed Jan 22, 4:00am

Wed Jan 22, 3:10am

Wed Jan 22, 3:01am

Wed Jan 22, 2:10am

Wed Jan 22, 2:00am

Wed Jan 22, 1:10am

Wed Jan 22, 1:00am

Wed Jan 22, 12:10am

Wed Jan 22, 12:00am

Tue Jan 21, 11:10pm

Tue Jan 21, 11:00pm

Tue Jan 21, 10:10pm

Tue Jan 21, 10:00pm

Tue Jan 21, 9:10pm

Tue Jan 21, 9:01pm

Tue Jan 21, 8:10pm

Tue Jan 21, 8:00pm

Tue Jan 21, 7:10pm

Tue Jan 21, 7:00pm

Tue Jan 21, 6:10pm

Tue Jan 21, 6:01pm

Tue Jan 21, 5:10pm

Tue Jan 21, 5:00pm

Tue Jan 21, 4:10pm

Tue Jan 21, 4:00pm

Tue Jan 21, 3:10pm

Tue Jan 21, 3:01pm

Tue Jan 21, 2:10pm

Tue Jan 21, 2:00pm

Tue Jan 21, 1:10pm

Tue Jan 21, 1:00pm

Tue Jan 21, 12:10pm

Tue Jan 21, 12:00pm

Tue Jan 21, 11:10am

Tue Jan 21, 11:00am

Tue Jan 21, 10:10am

Tue Jan 21, 10:00am

Tue Jan 21, 9:10am

Tue Jan 21, 9:00am

Tue Jan 21, 8:10am

Tue Jan 21, 8:00am

Tue Jan 21, 7:10am

Tue Jan 21, 7:00am

Tue Jan 21, 6:10am

Tue Jan 21, 6:00am

Tue Jan 21, 5:10am

Tue Jan 21, 5:00am

Tue Jan 21, 4:10am

Tue Jan 21, 4:00am

Tue Jan 21, 3:10am

Tue Jan 21, 3:00am

Tue Jan 21, 2:10am

Tue Jan 21, 2:01am

Tue Jan 21, 1:10am

Tue Jan 21, 1:00am

Tue Jan 21, 12:10am

Tue Jan 21, 12:00am

Mon Jan 20, 11:10pm

Mon Jan 20, 11:00pm

Mon Jan 20, 10:10pm

Mon Jan 20, 10:00pm

Mon Jan 20, 9:10pm

Mon Jan 20, 9:00pm

Mon Jan 20, 8:10pm

Mon Jan 20, 8:00pm

Mon Jan 20, 7:10pm

Mon Jan 20, 7:00pm

Mon Jan 20, 6:10pm

Mon Jan 20, 6:00pm

Mon Jan 20, 5:00pm

Mon Jan 20, 4:10pm

Mon Jan 20, 4:01pm

Mon Jan 20, 3:10pm

Mon Jan 20, 3:00pm

Mon Jan 20, 2:10pm

Mon Jan 20, 2:00pm

Mon Jan 20, 1:10pm

Mon Jan 20, 1:00pm

Meta data:

ID: 27268266-2086-4144-a91c-895e0fda46a4
Link: https://api.weather.gov/products/27268266-2086-4144-a91c-895e0fda46a4